Flag for Italy Weather past 2 weeks in Trieste, Italy

Now
56 °F

Overcast.


Feels Like: 55 °F
Forecast: 56 / 67 °F
Wind: 8 mph from East

Location: Trieste


UV Index: 0 (Low)

Visibility: 6 mi


Pressure: 29.70 "Hg

Humidity: 87%

Dew point: 53 °F

Location of TriesteLocation

Historic Weather in Trieste

°F

Trieste temperature yesterday

Maximum temperature yesterday: 63 °F (at 2:00 PM)
Minimum temperature yesterday: 54 °F (at 4:00 AM)
Average temperature yesterday: 57 °F

Past Weeks' High & Low Weather Summary

 TemperatureHumidityPressure
High72 °F (Apr 7, 5:00 PM)98% (Apr 14, 3:00 AM)30.17 "Hg (Apr 14, 3:00 AM)
Low46 °F (Apr 16, 8:00 AM)20% (Apr 15, 5:00 PM)29.68 "Hg (Apr 19, 5:00 AM)
Average58 °F63%29.96 "Hg
* Reported Apr 6 5:00 PM — Apr 21 5:00 PM, Trieste, Weather by CustomWeather, © 2014

Note: Actual official high and low records may vary slightly from our data, if they occured in-between our weather recording intervals... More about our weather records

Advertising

Historic Weather Conditions — Data for Previous 24 hours

 ConditionsComfort  
Time TempWeatherWind HumidityBarometerVisibility
5:00 PM
Apr 21
56 °FOvercast.8 mph87%29.70 "Hg6 mi
4:00 PM58 °FOvercast.7 mph90%29.71 "Hg6 mi
3:00 PM57 °FOvercast.6 mph90%29.72 "Hg6 mi
2:00 PM58 °FOvercast.9 mph88%29.71 "Hg12 mi
1:00 PM56 °FOvercast.2 mph98%29.73 "Hg12 mi
12:00 PM58 °FRain. Overcast.1 mph93%29.74 "Hg12 mi
11:00 AM60 °FRain. Overcast.No wind88%29.75 "Hg12 mi
10:00 AM61 °FOvercast.2 mph78%29.75 "Hg12 mi
9:00 AM60 °FOvercast.1 mph75%29.75 "Hg12 mi
8:00 AM58 °FOvercast.1 mph74%29.74 "Hg12 mi
7:00 AM56 °FOvercast.5 mph78%29.74 "Hg12 mi
6:00 AM56 °FOvercast.3 mph79%29.75 "Hg12 mi
4:00 AM58 °FPassing clouds.5 mph72%29.75 "Hg12 mi
3:00 AM56 °FPassing clouds.2 mph83%29.76 "Hg12 mi
2:00 AM56 °FPassing clouds.1 mph81%29.78 "Hg12 mi
1:00 AM57 °FPassing clouds.1 mph76%29.78 "Hg12 mi
12:00 AM58 °FPassing clouds.8 mph69%29.81 "Hg12 mi
11:00 PM
Apr 20
58 °FPassing clouds.8 mph70%29.81 "Hg12 mi
10:00 PM57 °FPassing clouds.14 mph72%29.77 "Hg12 mi
9:00 PM57 °FPassing clouds.13 mph72%29.75 "Hg12 mi
8:00 PM58 °FPassing clouds.8 mph72%29.75 "Hg12 mi
7:00 PM59 °FOvercast.9 mph71%29.76 "Hg12 mi
6:00 PM59 °FOvercast.12 mph71%29.75 "Hg12 mi
Weather by CustomWeather, © 2014

See weather overview